Location: M?digepalle
(16.1753°N, 80.3496°E)
Time: 07:46:52
(UTC+00:00)

Cosmos 1484 Rocket - Pass Details

Date: 29 October 2020
Orbit: 504 x 560 km, 97.4° (Epoch: 28 November)

Event Time Altitude Azimuth Distance (km) Brightness Sun altitude
Rises 22:54:04 0° 14° (NNE) 2,633 6.4 -24.6°
Reaches altitude 10° 22:56:11 10° 16° (NNE) 1,737 5.4 -24.1°
Maximum altitude 22:59:54 73° 100° (E) 536 2.8 -23.2°
Drops below altitude 10° 23:03:35 10° 186° (S) 1,714 5.4 -22.4°
Sets 23:05:39 0° 188° (S) 2,593 6.3 -21.9°
